RYR4B LPPT-LEIB

Flight info

Callsign RYR4B
Flight time 1h 18m
Altitude 38000
Route ORVED DCT UREDI DCT NVS/N0453F370 DCT NANDO DCT FENXE/N0454F380 T257 LASPO Z224 VARUT
Aircraft B38M/M-SDE1FGHILORVWXY/HB1

Departure

Time 2026-05-07 13:26
Airport Lisbon Humberto Delgado Airport (LPPT)

Arrival

Time 2026-05-07 14:44
Airport Ibiza Airport (LEIB)
Time Latitude Longitude Altitude Speed Heading
2026-05-07 13:01 38.77296 -9.13167 340 ft 0 kts 78°
2026-05-07 13:15 38.77295 -9.13173 340 ft 3 kts 78°
2026-05-07 13:15 38.77293 -9.13207 338 ft 4 kts 93°
2026-05-07 13:15 38.77298 -9.13238 338 ft 4 kts 122°
2026-05-07 13:15 38.77314 -9.13255 338 ft 1 kts 171°
2026-05-07 13:16 38.77315 -9.13255 338 ft 0 kts 172°
2026-05-07 13:20 38.77299 -9.13252 339 ft 5 kts 172°
2026-05-07 13:21 38.77249 -9.13240 340 ft 10 kts 166°
2026-05-07 13:21 38.77161 -9.13216 341 ft 15 kts 167°
2026-05-07 13:21 38.77049 -9.13184 340 ft 18 kts 168°
2026-05-07 13:21 38.76909 -9.13148 337 ft 23 kts 168°
2026-05-07 13:22 38.76786 -9.13158 345 ft 17 kts 241°
2026-05-07 13:22 38.76756 -9.13324 350 ft 21 kts 258°
2026-05-07 13:22 38.76682 -9.13440 347 ft 17 kts 213°
2026-05-07 13:22 38.76648 -9.13522 352 ft 10 kts 259°
2026-05-07 13:23 38.76634 -9.13615 350 ft 11 kts 258°
2026-05-07 13:23 38.76617 -9.13720 353 ft 13 kts 257°
2026-05-07 13:23 38.76596 -9.13837 351 ft 14 kts 257°
2026-05-07 13:23 38.76574 -9.13969 352 ft 16 kts 258°
2026-05-07 13:24 38.76511 -9.14082 356 ft 16 kts 236°
2026-05-07 13:24 38.76512 -9.14224 346 ft 18 kts 292°
2026-05-07 13:24 38.76537 -9.14303 338 ft 0 kts 293°
2026-05-07 13:25 38.76539 -9.14309 338 ft 3 kts 293°
2026-05-07 13:25 38.76554 -9.14354 337 ft 8 kts 293°
2026-05-07 13:25 38.76598 -9.14410 338 ft 11 kts 10°
2026-05-07 13:25 38.76627 -9.14398 336 ft 1 kts 23°
2026-05-07 13:26 38.76754 -9.14330 351 ft 53 kts 22°
2026-05-07 13:26 38.77327 -9.14026 364 ft 120 kts 23°
2026-05-07 13:26 38.78279 -9.13510 390 ft 171 kts 21°
2026-05-07 13:26 38.79378 -9.12859 1037 ft 173 kts 21°
2026-05-07 13:27 38.80494 -9.12191 1649 ft 184 kts 21°
2026-05-07 13:27 38.81615 -9.11556 2517 ft 180 kts 19°
2026-05-07 13:27 38.82813 -9.10790 2945 ft 205 kts 30°
2026-05-07 13:27 38.83939 -9.09516 3408 ft 229 kts 52°
2026-05-07 13:28 38.84858 -9.07721 3833 ft 252 kts 56°
2026-05-07 13:28 38.85884 -9.05771 4402 ft 267 kts 56°
2026-05-07 13:28 38.86923 -9.03809 5423 ft 271 kts 57°
2026-05-07 13:28 38.88009 -9.01769 6185 ft 280 kts 57°
2026-05-07 13:29 38.89019 -8.99639 7140 ft 280 kts 65°
2026-05-07 13:29 38.89876 -8.97408 7990 ft 284 kts 65°
2026-05-07 13:29 38.90780 -8.95096 8887 ft 288 kts 65°
2026-05-07 13:29 38.91685 -8.92811 9744 ft 293 kts 64°
2026-05-07 13:30 38.92627 -8.90447 10411 ft 303 kts 65°
2026-05-07 13:30 38.93623 -8.87959 10772 ft 323 kts 64°
2026-05-07 13:30 38.94676 -8.85336 11241 ft 338 kts 64°
2026-05-07 13:30 38.95774 -8.82603 11792 ft 348 kts 63°
2026-05-07 13:31 38.96888 -8.79828 12634 ft 349 kts 63°
2026-05-07 13:31 38.98006 -8.77039 13380 ft 355 kts 63°
2026-05-07 13:31 38.99145 -8.74196 14063 ft 360 kts 62°
2026-05-07 13:31 39.00295 -8.71322 14772 ft 363 kts 62°
2026-05-07 13:32 39.01458 -8.68412 15410 ft 368 kts 62°
2026-05-07 13:32 39.02634 -8.65465 16132 ft 371 kts 61°
2026-05-07 13:32 39.03805 -8.62531 16770 ft 376 kts 61°
2026-05-07 13:32 39.05018 -8.59486 17478 ft 378 kts 61°
2026-05-07 13:33 39.06209 -8.56497 18114 ft 383 kts 61°
2026-05-07 13:33 39.07429 -8.53431 18648 ft 387 kts 61°
2026-05-07 13:33 39.08662 -8.50328 19173 ft 391 kts 61°
2026-05-07 13:33 39.09906 -8.47196 19687 ft 395 kts 60°
2026-05-07 13:34 39.11161 -8.44029 20211 ft 399 kts 60°
2026-05-07 13:34 39.13708 -8.37596 21217 ft 408 kts 60°
2026-05-07 13:34 39.15003 -8.34321 21736 ft 411 kts 60°
2026-05-07 13:35 39.16311 -8.31010 22238 ft 415 kts 59°
2026-05-07 13:35 39.17628 -8.27672 22731 ft 419 kts 59°
2026-05-07 13:35 39.18940 -8.24340 23221 ft 423 kts 59°
2026-05-07 13:35 39.20280 -8.20937 23643 ft 427 kts 59°
2026-05-07 13:36 39.21630 -8.17502 24046 ft 430 kts 59°
2026-05-07 13:36 39.22988 -8.14043 24445 ft 434 kts 59°
2026-05-07 13:36 39.24355 -8.10559 24850 ft 437 kts 59°
2026-05-07 13:36 39.25735 -8.07041 25237 ft 440 kts 59°
2026-05-07 13:37 39.27123 -8.03495 25620 ft 444 kts 59°
2026-05-07 13:37 39.28329 -7.99813 25983 ft 450 kts 68°
2026-05-07 13:37 39.29383 -7.95981 26355 ft 453 kts 66°
2026-05-07 13:37 39.30479 -7.92158 26714 ft 456 kts 66°
2026-05-07 13:38 39.31599 -7.88307 27109 ft 458 kts 65°
2026-05-07 13:38 39.32725 -7.84455 27506 ft 460 kts 65°
2026-05-07 13:38 39.33847 -7.80616 27821 ft 464 kts 65°
2026-05-07 13:38 39.34990 -7.76703 28177 ft 467 kts 65°
2026-05-07 13:39 39.36138 -7.72770 28527 ft 470 kts 65°
2026-05-07 13:39 39.37295 -7.68798 28867 ft 473 kts 65°
2026-05-07 13:39 39.38516 -7.64841 29187 ft 473 kts 60°
2026-05-07 13:39 39.39966 -7.61008 29495 ft 475 kts 59°
2026-05-07 13:40 39.41437 -7.57164 29831 ft 477 kts 58°
2026-05-07 13:40 39.42919 -7.53312 30147 ft 479 kts 58°
2026-05-07 13:40 39.44405 -7.49446 30400 ft 482 kts 58°
2026-05-07 13:40 39.45904 -7.45546 30673 ft 484 kts 58°
2026-05-07 13:41 39.47406 -7.41632 30933 ft 487 kts 58°
2026-05-07 13:41 39.48898 -7.37739 31185 ft 489 kts 58°
2026-05-07 13:41 39.50414 -7.33777 31449 ft 492 kts 58°
2026-05-07 13:41 39.51935 -7.29799 31708 ft 494 kts 58°
2026-05-07 13:42 39.53461 -7.25801 31963 ft 496 kts 58°
2026-05-07 13:42 39.54998 -7.21770 32229 ft 499 kts 58°
2026-05-07 13:42 39.56535 -7.17734 32492 ft 501 kts 58°
2026-05-07 13:42 39.58079 -7.13672 32730 ft 503 kts 58°
2026-05-07 13:43 39.59627 -7.09596 33057 ft 504 kts 58°
2026-05-07 13:43 39.61171 -7.05523 33417 ft 503 kts 58°
2026-05-07 13:43 39.62721 -7.01430 33737 ft 504 kts 58°
2026-05-07 13:43 39.64247 -6.97391 34020 ft 504 kts 58°
2026-05-07 13:44 39.65787 -6.93312 34304 ft 504 kts 58°
2026-05-07 13:44 39.67325 -6.89233 34612 ft 503 kts 58°
2026-05-07 13:44 39.68866 -6.85141 34912 ft 502 kts 58°
2026-05-07 13:44 39.70396 -6.81074 35240 ft 502 kts 58°
2026-05-07 13:45 39.71925 -6.77001 35514 ft 501 kts 58°
2026-05-07 13:45 39.73455 -6.72920 35785 ft 501 kts 58°
2026-05-07 13:45 39.74985 -6.68836 36056 ft 501 kts 59°
2026-05-07 13:45 39.76487 -6.64821 36309 ft 500 kts 59°
2026-05-07 13:46 39.78005 -6.60755 36550 ft 500 kts 59°
2026-05-07 13:46 39.79523 -6.56686 36799 ft 500 kts 59°
2026-05-07 13:46 39.81039 -6.52616 37029 ft 500 kts 59°
2026-05-07 13:46 39.82556 -6.48540 37257 ft 500 kts 60°
2026-05-07 13:47 39.84070 -6.44467 37493 ft 499 kts 60°
2026-05-07 13:47 39.85573 -6.40393 37725 ft 500 kts 62°
2026-05-07 13:47 39.86757 -6.36123 37860 ft 503 kts 69°
2026-05-07 13:48 39.88906 -6.27489 37858 ft 499 kts 69°
2026-05-07 13:48 39.90678 -6.20317 37864 ft 500 kts 69°
2026-05-07 13:49 39.92800 -6.11690 37861 ft 500 kts 69°
2026-05-07 13:49 39.94913 -6.03070 37874 ft 496 kts 69°
2026-05-07 13:50 39.97000 -5.94527 37863 ft 494 kts 69°
2026-05-07 13:50 39.99414 -5.84602 37870 ft 494 kts 69°
2026-05-07 13:51 40.01148 -5.77449 37874 ft 494 kts 69°
2026-05-07 13:51 40.03203 -5.68942 37892 ft 494 kts 70°
2026-05-07 13:52 40.05246 -5.60456 37869 ft 488 kts 70°
2026-05-07 13:52 40.07281 -5.51973 37875 ft 489 kts 70°
2026-05-07 13:53 40.09311 -5.43477 37881 ft 489 kts 70°
2026-05-07 13:53 40.11332 -5.34987 37883 ft 489 kts 70°
2026-05-07 13:54 40.13332 -5.26555 37878 ft 486 kts 70°
2026-05-07 13:54 40.15318 -5.18155 37881 ft 483 kts 71°
2026-05-07 13:55 40.17295 -5.09759 37888 ft 483 kts 71°
2026-05-07 13:55 40.19265 -5.01363 37891 ft 483 kts 71°
2026-05-07 13:56 40.21229 -4.92964 37896 ft 483 kts 72°
2026-05-07 13:56 40.23183 -4.84573 37890 ft 481 kts 72°
2026-05-07 13:57 40.25130 -4.76185 37895 ft 481 kts 72°
2026-05-07 13:57 40.27058 -4.67848 37898 ft 481 kts 72°
2026-05-07 13:58 40.28993 -4.59447 37893 ft 482 kts 72°
2026-05-07 13:58 40.30925 -4.51027 37914 ft 482 kts 72°
2026-05-07 13:59 40.32852 -4.42610 37908 ft 482 kts 72°
2026-05-07 13:59 40.34765 -4.34224 37908 ft 482 kts 72°
2026-05-07 14:00 40.36328 -4.25689 37888 ft 481 kts 89°
2026-05-07 14:00 40.36062 -4.21341 37925 ft 479 kts 102°
2026-05-07 14:00 40.35400 -4.17064 37908 ft 481 kts 102°
2026-05-07 14:01 40.33989 -4.08472 37931 ft 482 kts 103°
2026-05-07 14:01 40.32501 -3.99901 37918 ft 482 kts 104°
2026-05-07 14:02 40.31004 -3.91389 37916 ft 482 kts 104°
2026-05-07 14:02 40.29491 -3.82828 37921 ft 482 kts 104°
2026-05-07 14:03 40.27979 -3.74312 37933 ft 479 kts 104°
2026-05-07 14:03 40.26463 -3.65813 37941 ft 479 kts 104°
2026-05-07 14:04 40.24941 -3.57318 37936 ft 479 kts 104°
2026-05-07 14:04 40.23412 -3.48824 37939 ft 479 kts 105°
2026-05-07 14:05 40.21878 -3.40339 37937 ft 479 kts 105°
2026-05-07 14:05 40.20343 -3.31881 37942 ft 480 kts 105°
2026-05-07 14:06 40.18792 -3.23382 37945 ft 480 kts 105°
2026-05-07 14:06 40.17232 -3.14869 37947 ft 481 kts 105°
2026-05-07 14:07 40.15666 -3.06359 37950 ft 481 kts 105°
2026-05-07 14:07 40.14089 -2.97830 37952 ft 481 kts 106°
2026-05-07 14:08 40.12511 -2.89329 37953 ft 481 kts 106°
2026-05-07 14:08 40.10935 -2.80883 37955 ft 482 kts 106°
2026-05-07 14:09 40.09344 -2.72387 37964 ft 481 kts 107°
2026-05-07 14:09 40.07746 -2.63898 37958 ft 481 kts 107°
2026-05-07 14:10 40.06142 -2.55404 37960 ft 482 kts 107°
2026-05-07 14:10 40.04530 -2.46908 37965 ft 481 kts 107°
2026-05-07 14:11 40.02920 -2.38464 37969 ft 482 kts 107°
2026-05-07 14:11 40.01300 -2.29986 37966 ft 482 kts 107°
2026-05-07 14:12 39.99673 -2.21511 37964 ft 482 kts 107°
2026-05-07 14:12 39.98712 -2.17331 37951 ft 478 kts 119°
2026-05-07 14:12 39.97146 -2.13556 38014 ft 472 kts 123°
2026-05-07 14:13 39.94019 -2.05977 37977 ft 475 kts 123°
2026-05-07 14:13 39.90852 -1.98470 37990 ft 476 kts 123°
2026-05-07 14:14 39.87649 -1.90931 37988 ft 475 kts 123°
2026-05-07 14:14 39.84446 -1.83414 37999 ft 475 kts 124°
2026-05-07 14:15 39.81228 -1.75879 37972 ft 474 kts 124°
2026-05-07 14:15 39.78035 -1.68421 37974 ft 476 kts 124°
2026-05-07 14:16 39.74808 -1.60901 37996 ft 476 kts 124°
2026-05-07 14:16 39.71577 -1.53390 37980 ft 476 kts 124°
2026-05-07 14:17 39.68342 -1.45893 37971 ft 476 kts 124°
2026-05-07 14:17 39.65097 -1.38390 37962 ft 476 kts 124°
2026-05-07 14:18 39.61851 -1.30903 37945 ft 476 kts 124°
2026-05-07 14:18 39.58599 -1.23419 37953 ft 476 kts 124°
2026-05-07 14:19 39.55358 -1.15980 37948 ft 477 kts 125°
2026-05-07 14:19 39.52089 -1.08500 37956 ft 475 kts 125°
2026-05-07 14:19 39.50461 -1.04781 37553 ft 474 kts 125°
2026-05-07 14:20 39.48811 -1.01018 36512 ft 481 kts 125°
2026-05-07 14:20 39.47176 -0.97292 36131 ft 473 kts 125°
2026-05-07 14:20 39.45542 -0.93574 35205 ft 478 kts 125°
2026-05-07 14:20 39.43909 -0.89846 34713 ft 472 kts 125°
2026-05-07 14:21 39.42292 -0.86158 34057 ft 471 kts 125°
2026-05-07 14:21 39.40667 -0.82467 33278 ft 469 kts 125°
2026-05-07 14:21 39.39062 -0.78831 32623 ft 466 kts 125°
2026-05-07 14:21 39.37474 -0.75234 31725 ft 466 kts 126°
2026-05-07 14:22 39.35872 -0.71615 31148 ft 460 kts 126°
2026-05-07 14:22 39.34298 -0.68060 30661 ft 453 kts 126°
2026-05-07 14:22 39.32739 -0.64543 30180 ft 446 kts 126°
2026-05-07 14:22 39.31204 -0.61086 29571 ft 442 kts 126°
2026-05-07 14:23 39.29682 -0.57658 29008 ft 437 kts 126°
2026-05-07 14:23 39.28262 -0.54206 28417 ft 438 kts 117°
2026-05-07 14:23 39.27427 -0.50387 27873 ft 440 kts 110°
2026-05-07 14:23 39.26636 -0.46616 27429 ft 433 kts 110°
2026-05-07 14:24 39.25854 -0.42902 26911 ft 429 kts 110°
2026-05-07 14:24 39.25087 -0.39232 26421 ft 426 kts 110°
2026-05-07 14:24 39.24319 -0.35562 25926 ft 422 kts 110°
2026-05-07 14:24 39.23555 -0.31919 25438 ft 419 kts 109°
2026-05-07 14:25 39.22798 -0.28309 24969 ft 416 kts 109°
2026-05-07 14:25 39.22043 -0.24716 24491 ft 414 kts 109°
2026-05-07 14:25 39.21293 -0.21151 24024 ft 411 kts 109°
2026-05-07 14:25 39.20544 -0.17595 23549 ft 409 kts 108°
2026-05-07 14:26 39.19797 -0.14059 23028 ft 407 kts 108°
2026-05-07 14:26 39.19057 -0.10562 22558 ft 403 kts 108°
2026-05-07 14:26 39.18322 -0.07094 22118 ft 399 kts 108°
2026-05-07 14:26 39.17594 -0.03663 21688 ft 395 kts 108°
2026-05-07 14:27 39.16873 -0.00271 21252 ft 391 kts 109°
2026-05-07 14:27 39.16157 0.03096 20838 ft 387 kts 109°
2026-05-07 14:27 39.15445 0.06436 20434 ft 384 kts 109°
2026-05-07 14:27 39.14747 0.09702 20035 ft 380 kts 109°
2026-05-07 14:28 39.14048 0.12973 19647 ft 377 kts 109°
2026-05-07 14:28 39.13353 0.16219 19234 ft 375 kts 109°
2026-05-07 14:28 39.12662 0.19439 18838 ft 372 kts 108°
2026-05-07 14:28 39.11974 0.22644 18429 ft 370 kts 108°
2026-05-07 14:29 39.11290 0.25825 18029 ft 368 kts 108°
2026-05-07 14:29 39.10609 0.28986 17608 ft 365 kts 108°
2026-05-07 14:29 39.09932 0.32126 17212 ft 362 kts 108°
2026-05-07 14:29 39.09266 0.35204 16838 ft 350 kts 108°
2026-05-07 14:30 39.08301 0.38046 16061 ft 344 kts 126°
2026-05-07 14:30 39.06817 0.40385 15405 ft 339 kts 133°
2026-05-07 14:30 39.05294 0.42676 14740 ft 336 kts 131°
2026-05-07 14:30 39.03796 0.44960 14097 ft 333 kts 131°
2026-05-07 14:31 39.02315 0.47231 13437 ft 330 kts 130°
2026-05-07 14:31 39.00861 0.49470 12738 ft 326 kts 130°
2026-05-07 14:31 38.99412 0.51704 12067 ft 323 kts 130°
2026-05-07 14:31 38.97978 0.53913 11402 ft 320 kts 130°
2026-05-07 14:32 38.96562 0.56094 10841 ft 315 kts 130°
2026-05-07 14:32 38.95160 0.58253 10529 ft 311 kts 130°
2026-05-07 14:32 38.93804 0.60337 10389 ft 302 kts 130°
2026-05-07 14:32 38.92479 0.62372 10260 ft 292 kts 130°
2026-05-07 14:33 38.91194 0.64345 10120 ft 284 kts 130°
2026-05-07 14:33 38.89946 0.66261 9975 ft 275 kts 130°
2026-05-07 14:33 38.88727 0.68130 9722 ft 272 kts 129°
2026-05-07 14:33 38.87513 0.69993 9388 ft 271 kts 129°
2026-05-07 14:34 38.86311 0.71835 9090 ft 269 kts 129°
2026-05-07 14:34 38.85117 0.73667 8794 ft 267 kts 128°
2026-05-07 14:34 38.84328 0.74876 8585 ft 265 kts 129°
2026-05-07 14:34 38.83146 0.76687 8296 ft 263 kts 129°
2026-05-07 14:35 38.81975 0.78479 8017 ft 261 kts 128°
2026-05-07 14:35 38.80441 0.80824 7649 ft 258 kts 128°
2026-05-07 14:35 38.79293 0.82578 7414 ft 254 kts 129°
2026-05-07 14:35 38.78531 0.83742 7323 ft 249 kts 128°
2026-05-07 14:36 38.77455 0.85387 7214 ft 240 kts 129°
2026-05-07 14:36 38.76448 0.87048 7055 ft 233 kts 118°
2026-05-07 14:36 38.75953 0.89054 6659 ft 244 kts 94°
2026-05-07 14:36 38.76078 0.91263 6178 ft 252 kts 82°
2026-05-07 14:37 38.76303 0.93524 5648 ft 260 kts 83°
2026-05-07 14:37 38.76718 0.98224 4769 ft 267 kts 84°
2026-05-07 14:37 38.76915 1.00567 4559 ft 261 kts 84°
2026-05-07 14:38 38.77100 1.02812 4432 ft 252 kts 84°
2026-05-07 14:38 38.77276 1.04965 4320 ft 234 kts 84°
2026-05-07 14:38 38.77438 1.06969 4174 ft 219 kts 84°
2026-05-07 14:38 38.77589 1.08850 4032 ft 205 kts 84°
2026-05-07 14:39 38.77729 1.10617 3898 ft 193 kts 84°
2026-05-07 14:39 38.77859 1.12267 3809 ft 180 kts 84°
2026-05-07 14:39 38.77980 1.13820 3646 ft 171 kts 84°
2026-05-07 14:39 38.78231 1.15292 3476 ft 169 kts 69°
2026-05-07 14:40 38.78738 1.16651 3282 ft 169 kts 64°
2026-05-07 14:40 38.79291 1.17983 3074 ft 170 kts 63°
2026-05-07 14:40 38.79846 1.19318 2865 ft 169 kts 63°
2026-05-07 14:40 38.80395 1.20643 2660 ft 168 kts 63°
2026-05-07 14:41 38.80943 1.21966 2446 ft 168 kts 63°
2026-05-07 14:41 38.81484 1.23273 2236 ft 161 kts 63°
2026-05-07 14:41 38.81992 1.24502 2023 ft 155 kts 63°
2026-05-07 14:41 38.82494 1.25716 1810 ft 153 kts 63°
2026-05-07 14:42 38.82995 1.26926 1613 ft 154 kts 63°
2026-05-07 14:42 38.83494 1.28136 1403 ft 153 kts 62°
2026-05-07 14:42 38.83978 1.29305 1218 ft 141 kts 62°
2026-05-07 14:42 38.84420 1.30375 1037 ft 132 kts 63°
2026-05-07 14:43 38.84847 1.31410 810 ft 130 kts 63°
2026-05-07 14:43 38.85274 1.32447 679 ft 131 kts 63°
2026-05-07 14:43 38.85699 1.33467 479 ft 128 kts 63°
2026-05-07 14:43 38.86114 1.34482 316 ft 132 kts 63°
2026-05-07 14:44 38.86545 1.35516 111 ft 131 kts 63°
2026-05-07 14:44 38.86952 1.36515 9 ft 114 kts 62°
2026-05-07 14:44 38.87252 1.37238 14 ft 61 kts 61°
2026-05-07 14:44 38.87449 1.37498 12 ft 18 kts 33°
2026-05-07 14:45 38.87559 1.37585 11 ft 12 kts
2026-05-07 14:45 38.87628 1.37529 11 ft 13 kts 332°
2026-05-07 14:45 38.87698 1.37453 11 ft 14 kts 281°
2026-05-07 14:45 38.87660 1.37338 11 ft 15 kts 242°
2026-05-07 14:46 38.87607 1.37209 12 ft 17 kts 242°
2026-05-07 14:46 38.87565 1.37094 12 ft 3 kts 272°
2026-05-07 14:46 38.87568 1.37088 11 ft 0 kts 314°
2026-05-07 14:46 38.87575 1.37087 11 ft 4 kts 348°
2026-05-07 14:47 38.87609 1.37066 12 ft 3 kts 332°
2026-05-07 14:47 38.87620 1.37059 11 ft 0 kts 332°